SCP
0 0 0 0 0 0 0 0 0 0 0 0 0 0 0 0 0 0 0 0 0 0 0 0 0 0 0 0 0 0 0 0 0 0 0 0 0 0 0 0 0 0 0 0 0 0 0 0 0 0 0 0 0 0
0 0 0 0 0 0 0 0 0 0 0 0 0 0 0 0 0 0 0 0 0 0 0 -0 0 0 0 0 0 0 0 0 0 0 0 0 0 0 0 0 0 0 0 0 0 0 0 0 0 0 0 0 0 0
0 0 0 0 0 0 0 0 0 0 0 0 0 0 0 0 0 0 0 0 0 0 0 0 0 0 0 0 0 0 0 0 0 0 0 0 0 0 0 0 0 0 0 0 0 0 0 0 0 0 0 0 0 0
0 0 0 0 0 0 0 0 0 0 0 0 0 0 0 0 0 0 0 0 0 0 0 0 0 0 0 0 0 0 0 0 0 0 0 0 0 0 0 0 0 0 0 0 0 0 0 0 0 0 0 0 0 0
0 0 0 0 0 0 0 0 0 0 0 0 0 0 0 0 0 0 0 0 0 0 0 0 0 0 0 0 0 0 0 0 0 0 0 0 0 0 0 0 0 0 0 0 0 0 0 0 0 0 0 0 0 0
0 0 0 0 0 0 0 0 0 0 0 0 0 0 0 0 0 0 0 0 0 0 0 0 0 0 0 0 0 0 0 0 0 0 0 -0 -0 0 0 0 0 0 0 0 0 0 0 -0 0 0 0 0 -0 -0
0 0 0 0 0 0 -0 -0 -0 0 0 0 0 0 0 0 0 0 0 0 0 0 0 0 0 0 0 0 0 0 0 0 0 0 0 0 0 0 0 0 -0 0 0 0 0 -0 0 0 0 0 0 0 0 0
0 0 0 0 0 0 0 0 0 0 0 0 0 0 0 0 0 0 0 0 0 0 0 0 0 0 0 0 0 0 0 0 0 -0 -0 0 0 0 -0 -0 0 0 0 0 0 0 0 0 0 0 -0 0 -0 -0
0 0 0 0 0 0 0 0 0 0 0 0 0 -0 0 0 0 0 0 0 0 0 0 0 0 0 0 0 0 0 0 0 0 -0 0 -0 0 -0 -0 0 -0 0 0 0 0 0 0 0 0 0 0 -0 -0 -0
0 0 0 0 0 0 0 0 0 0 0 -0 0 0 0 0 0 0 0 0 0 0 0 0 0 0 0 0 0 0 0 0 -0 0 -0 -0 0 -0 0 0 0 0 0 0 0 -0 0 0 0 0 -0 -0 0 -0
0 0 0 0 0 0 0 0 0 0 0 0 0 0 0 0 0 0 0 0 0 0 0 -0 -0 -0 0 0 0 0 0 0 -0 0 0 0 -0 0 0 0 0 0 0 0 0 0 0 0 -0 -0 0 -0 0 0
0 0 -0 -0 -0 -0 0 0 0 0 0 0 0 0 0 0 0 0 0 0 0 0 0 0 0 0 0 -0 -0 -0 0 0 -0 -0 -0 0 0 -0 0 0 0 0 0 0 0 0 0 -0 0 0 0 0 0 0
-0 -0 -0 -0 -0 -0 0 -0 0 0 0 0 0 0 0 0 0 0 0 0 -0 -0 0 0 0 0 0 -0 -0 0 0 -0 -0 -0 -0 0 -0 0 0 0 0 0 0 0 0 -0 -0 0 0 0 0 -0 -0 0
-0 -0 -0 -0 -0 -0 0 0 -0 0 0 0 0 0 0 0 0 0 -0 0 -0 0 -0 -0 0 0 -0 0 -0 0 -0 0 0 0 0 0 0 -0 -0 0 0 0 0 0 0 -0 -0 0 0 0 -0 -0 0 0
-0 -0 -0 -0 -0 0 0 0 -0 0 0 0 0 0 0 0 0 0 0 0 -0 0 -0 0 0 -0 -0 0 0 -0 0 0 0 -0 -0 0 -0 -0 -0 -0 -0 0 0 0 -0 -0 -0 -0 -0 -0 -0 -0 0 -0
-0 -0 0 -0 0 0 0 0 0 0 0 0 0 0 0 0 0 -0 0 0 -0 0 0 0 0 -0 -0 -0 0 -0 0 0 -0 -0 0 0 -0 -0 -0 -0 -0 0 0 0 -0 -0 -0 -0 -0 -0 -0 -0 -0 -0
-0 0 0 0 0 0 0 0 0 0 0 0 0 0 0 0 0 -0 -0 0 0 -0 0 0 -0 -0 -0 -0 -0 0 -0 0 -0 0 0 -0 -0 -0 -0 -0 -0 0 0 0 0 -0 -0 -0 -0 -0 -0 -0 -0 -0
-0 0 0 0 0 0 0 0 0 0 0 0 0 0 0 0 -0 0 -0 0 0 0 0 -0 0 -0 -0 -0 0 -0 0 0 0 -0 0 0 -0 -0 -0 -0 -0 0 0 0 0 0 -0 -0 -0 -0 -0 -0 -0 -0
0 0 -0 0 0 0 0 0 0 0 0 0 0 0 0 -0 -0 0 -0 0 -0 0 0 -0 -0 0 0 0 0 0 0 0 0 0 0 0 -0 -0 -0 -0 -0 -0 -0 0 -0 -0 -0 -0 -0 -0 -0 -0 -0 -0
0 0 0 0 0 0 0 0 0 0 0 0 0 0 0 0 0 0 0 0 0 0 0 0 0 0 0 -0 0 0 0 0 0 0 0 -0 -0 0 -0 -0 -0 -0 -0 0 -0 0 0 -0 -0 -0 -0 -0 -0 -0
0 0 0 0 0 0 0 0 0 0 0 0 0 0 0 0 0 0 0 0 0 0 0 0 0 0 0 0 0 0 0 0 0 0 0 0 -0 0 0 -0 0 -0 -0 -0 -0 -0 0 -0 -0 -0 -0 -0 -0 -0
0 0 0 0 0 0 0 0 0 0 0 0 0 0 0 0 0 0 0 0 0 0 0 -0 0 0 0 0 0 0 0 0 0 0 0 0 0 -0 -0 -0 0 0 0 0 -0 0 0 0 0 0 -0 -0 -0 -0
0 0 0 0 0 0 0 0 0 0 0 0 0 -0 -0 -0 0 0 0 0 0 0 0 0 0 0 0 0 0 0 0 0 0 0 0 0 0 0 0 0 0 0 0 0 0 -0 0 0 0 0 0 0 0 0
0 0 0 0 0 0 0 0 0 0 0 0 0 0 0 0 0 0 0 0 0 0 0 0 0 0 0 0 0 0 0 0 0 0 0 0 0 0 0 0 0 0 0 0 0 0 0 -0 0 0 0 -0 0 0
0 0 0 0 0 0 0 0 0 0 -0 -0 -0 0 0 0 0 0 0 0 0 0 0 0 0 0 0 0 0 0 0 0 0 0 0 0 0 0 0 0 0 0 0 0 0 0 0 0 0 -0 -0 -0 -0 -0
0 0 0 0 0 0 0 -0 -0 -0 -0 -0 -0 0 0 0 0 0 0 0 0 0 0 0 0 0 0 0 0 0 0 0 0 0 0 0 0 0 0 0 0 0 0 0 0 0 0 0 0 0 0 0 0 0
0 0 0 0 0 0 0 0 -0 -0 -0 -0 -0 -0 -0 0 0 0 0 0 0 0 0 0 0 0 0 0 0 0 0 0 0 0 0 -0 0 0 0 0 0 0 0 0 0 0 0 0 0 0 0 0 0 0
0 0 0 -0 0 0 0 0 0 -0 -0 -0 -0 0 -0 0 0 0 0 0 0 0 0 0 0 0 0 0 0 0 0 0 0 0 -0 -0 0 0 0 0 0 -0 0 0 0 0 0 0 0 0 0 0 0 0
0 0 -0 -0 -0 0 0 0 0 0 0 0 0 0 0 0 0 0 0 0 0 0 0 0 0 0 0 0 0 0 0 0 0 0 0 0 0 0 0 0 0 0 0 0 0 0 0 0 0 0 0 0 0 0
-0 0 0 -0 -0 0 0 0 0 0 0 0 0 0 0 0 0 0 0 0 0 0 0 0 0 0 0 0 0 0 0 0 0 0 0 0 0 0 0 0 0 0 0 0 0 0 0 0 0 0 0 0 0 0
0 0 0 0 0 0 0 0 0 0 0 0 0 0 0 0 0 0 0 0 0 0 0 0 0 0 0 0 0 0 0 0 0 0 0 0 0 0 0 0 0 0 0 0 0 0 0 0 0 0 0 0 0 0
0 0 0 -0 0 0 0 0 0 0 0 0 0 0 0 0 0 0 0 0 0 0 0 0 0 0 0 0 0 0 0 0 0 0 0 0 0 0 0 0 0 0 0 0 0 0 0 0 0 0 0 0 0 0
0 0 0 0 0 0 0 0 0 0 0 0 0 0 0 0 0 0 0 0 0 0 0 0 0 0 0 0 0 0 0 0 0 0 0 0 0 0 0 0 0 0 0 0 0 0 0 0 0 0 0 0 0 0
Wind_Speed_500mb
39 37 35 35 33 34 34 29 33 36 28 23 23 21 14 14 15 11 9 9 6 9 41 21 11 12 6 2 4 11 12 6 5 3 5 5 5 5 5 4 8 6 6 5 8 10 9 23 10 7 11 7 17 12
38 36 32 30 29 31 30 31 32 34 32 24 25 22 20 18 17 17 8 13 14 16 22 37 32 21 30 19 12 7 4 3 5 5 5 6 6 5 7 4 4 3 4 3 7 5 13 13 7 18 27 33 36 33
37 36 33 28 28 29 31 33 33 33 30 23 23 23 17 19 14 17 20 5 7 11 33 15 21 9 9 15 26 16 6 5 8 3 7 5 7 6 4 5 8 7 12 5 6 4 14 13 25 22 26 31 33 37
39 36 32 31 27 29 29 32 32 29 28 25 22 24 21 19 19 19 18 14 11 4 5 10 6 8 9 17 6 16 16 9 7 3 3 5 5 10 5 10 14 15 9 3 9 14 14 27 26 21 29 27 26 23
38 36 34 31 30 28 30 33 31 29 30 25 19 24 24 19 19 22 22 20 10 4 5 19 27 13 10 21 15 13 16 12 6 5 3 5 10 8 8 7 9 4 7 2 2 8 2 10 19 24 24 30 34 38
37 36 36 32 31 29 32 30 29 32 26 18 18 22 27 18 15 26 8 16 21 15 2 5 11 7 16 17 17 22 20 12 8 9 8 12 24 2 5 5 11 16 13 13 6 12 14 23 23 28 34 39 37 39
33 31 32 32 32 28 30 28 28 25 12 10 14 17 18 20 12 17 7 6 8 11 4 7 7 8 20 23 17 22 19 7 9 7 9 12 11 17 5 5 21 3 9 6 11 20 20 24 28 35 39 38 36 31
32 33 32 35 33 28 26 24 24 12 7 11 14 12 18 19 30 18 15 7 5 2 4 4 6 9 27 10 7 16 13 15 11 9 10 10 11 13 6 12 12 7 15 23 29 26 24 28 32 30 33 34 41 45
30 32 33 33 32 24 29 22 19 8 9 12 8 6 18 20 8 13 7 9 14 7 4 6 4 3 8 16 11 12 8 3 6 5 7 7 4 7 3 6 2 22 17 22 23 26 29 25 28 35 31 43 42 41
29 27 30 30 32 28 23 18 14 11 6 11 26 8 6 12 9 10 6 4 6 6 7 7 18 5 6 4 4 8 6 4 5 11 8 6 6 11 12 4 18 18 18 20 23 27 30 32 31 33 44 41 36 38
26 23 26 28 27 24 18 13 10 9 19 18 5 6 13 21 10 6 5 8 11 7 13 13 18 10 4 2 3 10 4 5 4 4 6 6 1 5 9 21 19 17 19 20 22 27 31 30 36 45 39 30 41 49
25 22 26 25 21 18 19 9 6 16 12 18 11 20 22 7 4 5 6 7 8 6 18 9 18 14 6 3 4 7 5 4 6 5 5 3 1 20 24 23 22 19 17 23 25 28 30 32 37 36 33 39 51 57
21 20 25 20 17 12 13 6 5 22 13 21 5 7 8 7 7 9 11 7 6 9 16 16 7 13 7 9 8 5 7 7 6 6 1 4 19 25 21 20 19 18 23 23 26 26 28 33 33 34 37 41 47 63
19 19 22 16 13 11 6 4 9 23 6 4 6 7 8 9 10 11 11 3 14 17 31 25 12 6 9 7 6 6 6 3 5 0 5 4 28 29 24 18 17 22 22 24 25 26 27 34 30 43 40 53 47 55
20 20 19 12 6 6 6 12 10 16 6 5 4 6 14 25 31 25 21 15 20 31 35 19 8 6 4 4 4 6 6 7 6 5 6 26 29 26 22 16 19 21 23 24 25 27 27 32 37 45 39 46 64 54
15 16 10 4 7 8 8 9 24 20 3 3 8 8 20 20 17 27 6 25 22 30 22 10 5 5 7 5 6 7 3 4 6 5 29 31 27 23 19 17 17 19 20 24 25 26 27 32 39 43 42 43 63 62
16 9 4 3 6 7 12 21 13 7 7 7 12 24 33 30 13 15 5 10 12 24 4 7 8 6 4 5 3 5 2 3 17 31 35 28 26 22 18 18 18 18 19 19 23 27 29 30 35 38 49 44 52 67
18 14 4 6 10 14 19 18 7 6 10 16 14 20 15 22 21 14 5 26 17 10 10 3 4 5 5 3 1 3 8 5 32 38 30 23 22 22 20 20 19 15 15 20 17 22 31 36 37 37 39 53 50 71
24 10 8 10 13 8 6 10 9 6 17 16 26 34 30 16 23 33 33 12 21 8 8 5 3 3 4 4 6 12 17 11 37 34 29 23 22 20 20 20 18 18 22 21 22 23 26 34 36 37 40 51 55 62
24 17 11 14 16 7 4 6 10 9 10 9 20 22 25 20 21 18 13 17 16 9 4 3 4 8 8 9 6 11 14 17 33 35 29 23 21 18 18 19 12 14 17 23 22 23 17 26 32 36 35 43 54 53
14 18 15 20 22 15 3 5 7 9 13 12 20 20 13 18 14 14 8 11 13 9 5 17 13 12 9 5 8 12 17 12 7 25 36 35 28 18 17 21 18 18 23 23 22 21 30 31 31 34 34 35 45 46
11 18 18 18 6 7 8 11 7 8 8 14 16 7 9 10 12 10 9 18 8 13 23 25 13 12 10 14 15 6 18 21 7 20 38 33 30 24 21 16 21 27 22 18 15 22 20 26 24 23 32 27 35 43
19 22 11 10 10 7 6 10 9 7 5 6 11 5 5 6 10 7 5 13 20 25 24 18 19 19 17 10 19 15 19 25 14 25 21 22 25 24 19 24 15 20 19 17 16 17 22 22 23 29 21 33 25 41
17 14 8 11 12 7 6 9 5 4 6 4 5 7 7 12 9 5 7 17 22 9 13 18 18 21 17 18 18 19 21 27 16 16 16 25 22 19 19 25 32 28 22 17 14 14 16 18 19 23 32 26 33 32
9 10 8 8 12 10 9 8 6 5 6 11 6 8 1 0 5 6 6 5 3 11 9 11 16 21 20 24 20 23 25 33 23 21 18 19 31 25 20 17 18 14 13 15 12 13 14 15 19 21 27 27 31 34
7 13 14 15 9 9 9 11 12 14 11 8 9 5 7 1 4 3 6 16 23 20 9 3 4 5 5 19 30 25 24 31 33 22 23 25 22 25 29 27 21 11 11 16 13 11 11 12 15 16 20 22 21 25
6 10 13 15 9 14 7 6 12 6 6 5 5 2 2 4 3 5 8 17 15 17 11 6 8 14 18 21 20 24 29 28 28 23 32 27 24 30 30 28 34 27 18 14 12 11 11 10 11 15 17 19 21 20
10 11 11 23 14 10 5 7 4 7 8 8 11 8 4 1 2 4 12 14 12 9 11 7 4 4 17 21 23 34 32 38 36 46 42 29 21 19 22 37 36 24 10 12 11 13 12 12 13 15 14 15 21 17
10 11 8 12 8 5 7 7 6 5 2 8 3 4 5 6 7 9 4 9 8 10 8 3 6 7 17 28 27 33 33 44 43 40 32 25 12 9 18 23 15 7 9 8 7 9 11 12 11 14 12 7 15 20
12 14 7 13 9 11 16 16 8 5 13 10 10 10 9 6 5 6 8 6 6 3 1 6 12 14 24 28 28 36 34 32 28 29 32 29 20 22 25 23 13 10 15 14 15 19 18 17 18 12 6 12 7 8
7 13 7 7 7 13 12 12 17 10 9 7 7 6 8 8 3 6 9 8 3 5 11 15 11 20 23 25 28 34 28 26 28 22 34 31 28 31 28 24 21 20 19 16 15 14 12 14 11 6 6 5 8 10
7 8 9 8 5 5 8 6 6 4 2 2 2 7 9 6 4 4 8 11 14 13 10 22 11 16 28 22 30 32 29 26 21 27 32 29 29 30 28 24 19 21 22 22 19 20 17 13 12 11 7 6 8 13
8 6 3 1 1 2 4 5 4 4 5 6 6 9 6 6 5 2 1 5 12 21 30 25 21 28 24 23 27 27 34 37 29 33 31 29 33 30 24 24 26 24 19 14 13 11 8 6 4 3 3 5 9 13
Wind_Direction_500mb
321 323 320 307 305 308 309 313 316 312 299 263 257 262 247 247 238 247 198 257 232 281 284 295 358 336 330 193 224 0 335 22 320 269 276 341 290 20 303 279 321 192 183 212 197 212 222 1 34 28 309 269 299 329
322 321 321 317 311 311 316 318 314 310 303 259 249 248 242 241 237 244 217 258 270 263 258 289 276 279 251 260 248 211 158 196 322 300 32 310 336 278 306 287 221 264 199 251 196 288 217 297 296 350 8 8 358 0
322 324 321 319 320 320 320 319 319 315 307 288 243 234 238 213 225 229 212 291 310 315 318 304 255 232 194 211 235 198 219 159 99 35 336 295 283 341 310 293 349 249 184 200 224 315 295 89 45 19 4 346 347 346
320 319 314 319 315 313 315 316 318 314 308 294 235 223 220 230 239 230 220 222 253 296 306 310 133 169 223 221 197 228 225 202 168 96 282 258 272 302 243 249 277 273 206 284 271 37 61 26 5 348 324 328 348 349
319 321 312 316 318 317 313 315 316 314 308 290 236 220 213 214 225 211 223 236 253 214 303 297 308 249 215 211 191 220 209 212 177 152 225 244 264 321 277 250 262 46 5 208 221 81 137 306 326 336 11 21 5 355
311 312 315 312 315 317 311 317 318 317 310 273 226 214 200 218 201 212 205 254 246 231 256 292 325 260 161 185 196 216 211 197 178 173 223 236 246 159 274 274 96 65 343 341 56 0 333 325 0 14 10 355 353 343
309 312 324 316 307 312 315 318 324 322 293 229 201 193 210 214 210 182 166 154 111 146 197 274 292 167 179 169 166 179 200 186 210 211 235 252 233 196 261 239 9 119 196 58 19 9 360 12 29 9 2 353 345 346
306 314 318 320 321 307 310 316 324 330 270 208 195 206 170 210 193 164 163 164 173 184 200 287 279 217 201 178 181 184 187 182 214 237 239 243 268 201 259 93 291 325 7 19 14 8 28 10 2 359 355 350 350 350
299 303 309 312 321 306 313 299 302 308 241 206 212 195 181 163 131 154 145 213 224 205 259 195 247 265 180 213 157 179 210 205 238 228 236 244 246 226 61 52 247 53 38 20 6 5 8 1 11 0 9 356 355 346
298 306 312 310 314 308 313 300 294 291 194 168 159 117 122 150 128 131 120 155 206 228 226 254 228 267 321 54 116 136 181 230 237 219 201 212 249 126 148 143 73 46 27 20 20 12 30 14 14 17 2 358 344 350
297 306 318 312 315 316 315 298 289 261 171 166 117 99 114 140 136 158 177 217 175 218 209 233 239 232 272 294 138 199 206 249 255 218 190 214 61 318 135 90 73 53 36 27 33 34 25 33 23 12 8 3 2 5
308 312 312 307 312 323 328 290 299 187 184 173 170 120 141 181 197 233 202 197 213 245 183 198 212 178 155 187 230 224 250 199 252 186 228 138 310 227 86 72 69 49 47 51 41 34 32 35 19 21 24 8 7 8
297 297 305 302 308 303 312 288 183 150 141 134 137 136 160 166 207 223 195 192 202 216 178 152 147 157 144 203 228 245 226 226 196 226 129 104 213 93 79 69 66 68 58 56 46 41 46 30 32 31 19 9 356 9
292 290 297 295 303 292 251 255 155 191 141 164 179 164 223 185 239 207 239 125 227 162 157 160 122 174 197 189 244 239 266 176 250 79 71 215 104 102 88 77 76 71 68 61 53 47 39 39 43 24 20 17 9 359
291 291 285 276 260 262 237 205 188 197 194 218 210 236 220 241 277 278 204 143 221 151 140 114 99 190 216 260 278 295 255 258 54 97 181 104 95 91 89 86 80 78 70 64 53 47 47 46 32 26 21 19 18 15
293 313 341 229 226 202 211 189 190 185 240 241 236 262 267 273 315 31 122 132 207 145 136 122 137 195 213 225 204 236 38 290 142 147 130 117 108 106 103 102 91 86 76 67 60 50 47 43 29 32 31 16 17 25
267 288 322 76 199 155 172 186 185 209 222 233 246 245 260 280 265 289 286 316 311 174 145 168 184 172 65 291 209 5 314 335 142 115 118 121 123 122 115 110 104 98 88 75 62 52 47 39 33 34 32 25 16 27
248 262 280 248 200 169 192 203 191 234 244 244 254 265 270 272 261 243 275 309 212 254 173 214 88 201 202 178 127 320 111 270 120 120 118 120 131 124 120 116 110 109 99 78 62 57 46 42 38 35 27 29 22 24
234 282 199 231 193 174 220 202 218 256 245 253 261 272 274 277 318 271 257 188 199 167 170 234 234 247 119 106 92 104 172 180 123 126 130 134 137 128 128 124 122 95 111 84 74 68 55 41 44 38 30 24 28 25
232 238 206 182 185 205 230 214 198 256 271 275 290 279 282 268 267 230 185 175 173 154 195 246 273 11 106 157 131 133 186 189 151 145 148 150 149 156 163 139 145 153 122 91 74 50 74 53 47 42 34 30 31 27
246 194 191 197 208 214 278 214 237 247 286 286 309 320 286 280 287 282 220 190 197 194 223 222 234 268 310 165 143 138 182 203 28 180 169 160 155 160 161 156 138 125 123 114 83 66 53 54 55 45 43 40 35 30
212 187 179 183 205 216 245 228 236 272 276 286 299 275 306 313 264 257 247 192 213 213 226 249 220 235 243 223 202 214 163 155 107 152 158 152 157 160 170 179 155 117 106 101 81 73 67 53 43 57 53 46 29 33
185 195 189 173 197 215 255 190 225 215 261 297 312 254 212 234 262 250 240 242 226 234 237 232 222 229 222 210 187 178 168 158 181 151 151 171 153 146 141 141 145 142 125 110 99 78 68 58 41 35 65 53 30 28
168 176 185 195 200 209 199 206 221 260 289 273 255 254 230 204 201 238 249 240 254 238 191 205 208 203 207 203 191 181 188 166 178 167 162 145 133 141 147 131 125 125 125 113 113 100 72 66 49 29 40 63 47 25
167 197 185 194 210 196 204 176 191 177 247 210 252 252 256 99 194 239 244 26 98 137 166 183 195 199 208 201 188 179 199 180 179 181 157 158 150 143 138 134 119 119 154 141 105 94 73 60 65 42 40 48 55 44
218 196 196 200 199 208 203 187 201 213 226 217 239 297 21 21 267 276 46 26 67 60 46 199 241 229 194 184 189 189 187 175 184 167 160 155 149 159 159 150 150 153 130 127 122 100 86 64 66 65 47 31 45 55
226 192 205 222 222 225 256 247 205 210 221 241 150 140 233 234 235 50 50 39 50 36 11 331 296 236 217 185 186 177 177 165 164 180 154 156 172 181 179 178 162 154 154 144 139 126 110 90 77 74 63 43 26 34
254 203 190 204 214 235 267 302 217 220 215 191 148 212 208 61 97 89 42 27 17 1 348 325 57 186 181 179 160 158 147 150 146 142 130 126 132 125 148 158 162 166 152 183 184 167 155 131 98 78 64 66 40 8
238 231 196 189 163 227 237 244 260 246 344 12 12 79 94 98 159 173 130 2 10 359 7 37 90 128 171 157 156 146 159 159 160 149 140 129 145 138 159 162 168 142 138 139 104 91 92 90 109 108 62 52 65 20
240 226 212 208 197 207 239 240 299 85 92 103 130 132 120 134 204 278 278 274 189 210 145 135 109 133 144 147 142 149 164 176 180 170 157 157 154 130 125 133 127 100 87 74 70 72 82 84 84 87 42 353 41 5
219 211 210 229 247 237 284 129 111 112 115 91 85 121 136 155 134 20 0 350 339 139 169 155 115 158 152 155 152 151 140 153 175 168 177 176 164 154 152 152 155 146 144 144 139 104 146 151 134 121 92 36 347 323
196 220 228 224 217 127 111 128 121 99 99 118 125 148 147 144 106 356 23 113 113 128 140 183 173 133 161 158 165 161 161 180 169 166 174 174 169 165 164 163 161 157 167 167 167 174 179 192 190 198 227 278 317 337
193 201 193 206 102 97 148 156 157 146 166 160 169 168 142 130 124 184 82 137 140 119 110 106 136 171 163 164 168 174 177 165 167 164 174 166 152 155 154 157 165 189 209 201 194 199 198 203 217 238 293 332 352 0
Wind_Speed_850mb
39 37 35 35 33 34 34 29 33 36 28 23 23 21 14 14 15 11 9 9 6 9 41 21 11 12 6 2 4 11 12 6 5 3 5 5 5 5 5 4 8 6 6 5 8 10 9 23 10 7 11 7 17 12
38 36 32 30 29 31 30 31 32 34 32 24 25 22 20 18 17 17 8 13 14 16 22 37 32 21 30 19 12 7 4 3 5 5 5 6 6 5 7 4 4 3 4 3 7 5 13 13 7 18 27 33 36 33
37 36 33 28 28 29 31 33 33 33 30 23 23 23 17 19 14 17 20 5 7 11 33 15 21 9 9 15 26 16 6 5 8 3 7 5 7 6 4 5 8 7 12 5 6 4 14 13 25 22 26 31 33 37
39 36 32 31 27 29 29 32 32 29 28 25 22 24 21 19 19 19 18 14 11 4 5 10 6 8 9 17 6 16 16 9 7 3 3 5 5 10 5 10 14 15 9 3 9 14 14 27 26 21 29 27 26 23
38 36 34 31 30 28 30 33 31 29 30 25 19 24 24 19 19 22 22 20 10 4 5 19 27 13 10 21 15 13 16 12 6 5 3 5 10 8 8 7 9 4 7 2 2 8 2 10 19 24 24 30 34 38
37 36 36 32 31 29 32 30 29 32 26 18 18 22 27 18 15 26 8 16 21 15 2 5 11 7 16 17 17 22 20 12 8 9 8 12 24 2 5 5 11 16 13 13 6 12 14 23 23 28 34 39 37 39
33 31 32 32 32 28 30 28 28 25 12 10 14 17 18 20 12 17 7 6 8 11 4 7 7 8 20 23 17 22 19 7 9 7 9 12 11 17 5 5 21 3 9 6 11 20 20 24 28 35 39 38 36 31
32 33 32 35 33 28 26 24 24 12 7 11 14 12 18 19 30 18 15 7 5 2 4 4 6 9 27 10 7 16 13 15 11 9 10 10 11 13 6 12 12 7 15 23 29 26 24 28 32 30 33 34 41 45
30 32 33 33 32 24 29 22 19 8 9 12 8 6 18 20 8 13 7 9 14 7 4 6 4 3 8 16 11 12 8 3 6 5 7 7 4 7 3 6 2 22 17 22 23 26 29 25 28 35 31 43 42 41
29 27 30 30 32 28 23 18 14 11 6 11 26 8 6 12 9 10 6 4 6 6 7 7 18 5 6 4 4 8 6 4 5 11 8 6 6 11 12 4 18 18 18 20 23 27 30 32 31 33 44 41 36 38
26 23 26 28 27 24 18 13 10 9 19 18 5 6 13 21 10 6 5 8 11 7 13 13 18 10 4 2 3 10 4 5 4 4 6 6 1 5 9 21 19 17 19 20 22 27 31 30 36 45 39 30 41 49
25 22 26 25 21 18 19 9 6 16 12 18 11 20 22 7 4 5 6 7 8 6 18 9 18 14 6 3 4 7 5 4 6 5 5 3 1 20 24 23 22 19 17 23 25 28 30 32 37 36 33 39 51 57
21 20 25 20 17 12 13 6 5 22 13 21 5 7 8 7 7 9 11 7 6 9 16 16 7 13 7 9 8 5 7 7 6 6 1 4 19 25 21 20 19 18 23 23 26 26 28 33 33 34 37 41 47 63
19 19 22 16 13 11 6 4 9 23 6 4 6 7 8 9 10 11 11 3 14 17 31 25 12 6 9 7 6 6 6 3 5 0 5 4 28 29 24 18 17 22 22 24 25 26 27 34 30 43 40 53 47 55
20 20 19 12 6 6 6 12 10 16 6 5 4 6 14 25 31 25 21 15 20 31 35 19 8 6 4 4 4 6 6 7 6 5 6 26 29 26 22 16 19 21 23 24 25 27 27 32 37 45 39 46 64 54
15 16 10 4 7 8 8 9 24 20 3 3 8 8 20 20 17 27 6 25 22 30 22 10 5 5 7 5 6 7 3 4 6 5 29 31 27 23 19 17 17 19 20 24 25 26 27 32 39 43 42 43 63 62
16 9 4 3 6 7 12 21 13 7 7 7 12 24 33 30 13 15 5 10 12 24 4 7 8 6 4 5 3 5 2 3 17 31 35 28 26 22 18 18 18 18 19 19 23 27 29 30 35 38 49 44 52 67
18 14 4 6 10 14 19 18 7 6 10 16 14 20 15 22 21 14 5 26 17 10 10 3 4 5 5 3 1 3 8 5 32 38 30 23 22 22 20 20 19 15 15 20 17 22 31 36 37 37 39 53 50 71
24 10 8 10 13 8 6 10 9 6 17 16 26 34 30 16 23 33 33 12 21 8 8 5 3 3 4 4 6 12 17 11 37 34 29 23 22 20 20 20 18 18 22 21 22 23 26 34 36 37 40 51 55 62
24 17 11 14 16 7 4 6 10 9 10 9 20 22 25 20 21 18 13 17 16 9 4 3 4 8 8 9 6 11 14 17 33 35 29 23 21 18 18 19 12 14 17 23 22 23 17 26 32 36 35 43 54 53
14 18 15 20 22 15 3 5 7 9 13 12 20 20 13 18 14 14 8 11 13 9 5 17 13 12 9 5 8 12 17 12 7 25 36 35 28 18 17 21 18 18 23 23 22 21 30 31 31 34 34 35 45 46
11 18 18 18 6 7 8 11 7 8 8 14 16 7 9 10 12 10 9 18 8 13 23 25 13 12 10 14 15 6 18 21 7 20 38 33 30 24 21 16 21 27 22 18 15 22 20 26 24 23 32 27 35 43
19 22 11 10 10 7 6 10 9 7 5 6 11 5 5 6 10 7 5 13 20 25 24 18 19 19 17 10 19 15 19 25 14 25 21 22 25 24 19 24 15 20 19 17 16 17 22 22 23 29 21 33 25 41
17 14 8 11 12 7 6 9 5 4 6 4 5 7 7 12 9 5 7 17 22 9 13 18 18 21 17 18 18 19 21 27 16 16 16 25 22 19 19 25 32 28 22 17 14 14 16 18 19 23 32 26 33 32
9 10 8 8 12 10 9 8 6 5 6 11 6 8 1 0 5 6 6 5 3 11 9 11 16 21 20 24 20 23 25 33 23 21 18 19 31 25 20 17 18 14 13 15 12 13 14 15 19 21 27 27 31 34
7 13 14 15 9 9 9 11 12 14 11 8 9 5 7 1 4 3 6 16 23 20 9 3 4 5 5 19 30 25 24 31 33 22 23 25 22 25 29 27 21 11 11 16 13 11 11 12 15 16 20 22 21 25
6 10 13 15 9 14 7 6 12 6 6 5 5 2 2 4 3 5 8 17 15 17 11 6 8 14 18 21 20 24 29 28 28 23 32 27 24 30 30 28 34 27 18 14 12 11 11 10 11 15 17 19 21 20
10 11 11 23 14 10 5 7 4 7 8 8 11 8 4 1 2 4 12 14 12 9 11 7 4 4 17 21 23 34 32 38 36 46 42 29 21 19 22 37 36 24 10 12 11 13 12 12 13 15 14 15 21 17
10 11 8 12 8 5 7 7 6 5 2 8 3 4 5 6 7 9 4 9 8 10 8 3 6 7 17 28 27 33 33 44 43 40 32 25 12 9 18 23 15 7 9 8 7 9 11 12 11 14 12 7 15 20
12 14 7 13 9 11 16 16 8 5 13 10 10 10 9 6 5 6 8 6 6 3 1 6 12 14 24 28 28 36 34 32 28 29 32 29 20 22 25 23 13 10 15 14 15 19 18 17 18 12 6 12 7 8
7 13 7 7 7 13 12 12 17 10 9 7 7 6 8 8 3 6 9 8 3 5 11 15 11 20 23 25 28 34 28 26 28 22 34 31 28 31 28 24 21 20 19 16 15 14 12 14 11 6 6 5 8 10
7 8 9 8 5 5 8 6 6 4 2 2 2 7 9 6 4 4 8 11 14 13 10 22 11 16 28 22 30 32 29 26 21 27 32 29 29 30 28 24 19 21 22 22 19 20 17 13 12 11 7 6 8 13
8 6 3 1 1 2 4 5 4 4 5 6 6 9 6 6 5 2 1 5 12 21 30 25 21 28 24 23 27 27 34 37 29 33 31 29 33 30 24 24 26 24 19 14 13 11 8 6 4 3 3 5 9 13
Wind_Direction_850mb
321 323 320 307 305 308 309 313 316 312 299 263 257 262 247 247 238 247 198 257 232 281 284 295 358 336 330 193 224 0 335 22 320 269 276 341 290 20 303 279 321 192 183 212 197 212 222 1 34 28 309 269 299 329
322 321 321 317 311 311 316 318 314 310 303 259 249 248 242 241 237 244 217 258 270 263 258 289 276 279 251 260 248 211 158 196 322 300 32 310 336 278 306 287 221 264 199 251 196 288 217 297 296 350 8 8 358 0
322 324 321 319 320 320 320 319 319 315 307 288 243 234 238 213 225 229 212 291 310 315 318 304 255 232 194 211 235 198 219 159 99 35 336 295 283 341 310 293 349 249 184 200 224 315 295 89 45 19 4 346 347 346
320 319 314 319 315 313 315 316 318 314 308 294 235 223 220 230 239 230 220 222 253 296 306 310 133 169 223 221 197 228 225 202 168 96 282 258 272 302 243 249 277 273 206 284 271 37 61 26 5 348 324 328 348 349
319 321 312 316 318 317 313 315 316 314 308 290 236 220 213 214 225 211 223 236 253 214 303 297 308 249 215 211 191 220 209 212 177 152 225 244 264 321 277 250 262 46 5 208 221 81 137 306 326 336 11 21 5 355
311 312 315 312 315 317 311 317 318 317 310 273 226 214 200 218 201 212 205 254 246 231 256 292 325 260 161 185 196 216 211 197 178 173 223 236 246 159 274 274 96 65 343 341 56 0 333 325 0 14 10 355 353 343
309 312 324 316 307 312 315 318 324 322 293 229 201 193 210 214 210 182 166 154 111 146 197 274 292 167 179 169 166 179 200 186 210 211 235 252 233 196 261 239 9 119 196 58 19 9 360 12 29 9 2 353 345 346
306 314 318 320 321 307 310 316 324 330 270 208 195 206 170 210 193 164 163 164 173 184 200 287 279 217 201 178 181 184 187 182 214 237 239 243 268 201 259 93 291 325 7 19 14 8 28 10 2 359 355 350 350 350
299 303 309 312 321 306 313 299 302 308 241 206 212 195 181 163 131 154 145 213 224 205 259 195 247 265 180 213 157 179 210 205 238 228 236 244 246 226 61 52 247 53 38 20 6 5 8 1 11 0 9 356 355 346
298 306 312 310 314 308 313 300 294 291 194 168 159 117 122 150 128 131 120 155 206 228 226 254 228 267 321 54 116 136 181 230 237 219 201 212 249 126 148 143 73 46 27 20 20 12 30 14 14 17 2 358 344 350
297 306 318 312 315 316 315 298 289 261 171 166 117 99 114 140 136 158 177 217 175 218 209 233 239 232 272 294 138 199 206 249 255 218 190 214 61 318 135 90 73 53 36 27 33 34 25 33 23 12 8 3 2 5
308 312 312 307 312 323 328 290 299 187 184 173 170 120 141 181 197 233 202 197 213 245 183 198 212 178 155 187 230 224 250 199 252 186 228 138 310 227 86 72 69 49 47 51 41 34 32 35 19 21 24 8 7 8
297 297 305 302 308 303 312 288 183 150 141 134 137 136 160 166 207 223 195 192 202 216 178 152 147 157 144 203 228 245 226 226 196 226 129 104 213 93 79 69 66 68 58 56 46 41 46 30 32 31 19 9 356 9
292 290 297 295 303 292 251 255 155 191 141 164 179 164 223 185 239 207 239 125 227 162 157 160 122 174 197 189 244 239 266 176 250 79 71 215 104 102 88 77 76 71 68 61 53 47 39 39 43 24 20 17 9 359
291 291 285 276 260 262 237 205 188 197 194 218 210 236 220 241 277 278 204 143 221 151 140 114 99 190 216 260 278 295 255 258 54 97 181 104 95 91 89 86 80 78 70 64 53 47 47 46 32 26 21 19 18 15
293 313 341 229 226 202 211 189 190 185 240 241 236 262 267 273 315 31 122 132 207 145 136 122 137 195 213 225 204 236 38 290 142 147 130 117 108 106 103 102 91 86 76 67 60 50 47 43 29 32 31 16 17 25
267 288 322 76 199 155 172 186 185 209 222 233 246 245 260 280 265 289 286 316 311 174 145 168 184 172 65 291 209 5 314 335 142 115 118 121 123 122 115 110 104 98 88 75 62 52 47 39 33 34 32 25 16 27
248 262 280 248 200 169 192 203 191 234 244 244 254 265 270 272 261 243 275 309 212 254 173 214 88 201 202 178 127 320 111 270 120 120 118 120 131 124 120 116 110 109 99 78 62 57 46 42 38 35 27 29 22 24
234 282 199 231 193 174 220 202 218 256 245 253 261 272 274 277 318 271 257 188 199 167 170 234 234 247 119 106 92 104 172 180 123 126 130 134 137 128 128 124 122 95 111 84 74 68 55 41 44 38 30 24 28 25
232 238 206 182 185 205 230 214 198 256 271 275 290 279 282 268 267 230 185 175 173 154 195 246 273 11 106 157 131 133 186 189 151 145 148 150 149 156 163 139 145 153 122 91 74 50 74 53 47 42 34 30 31 27
246 194 191 197 208 214 278 214 237 247 286 286 309 320 286 280 287 282 220 190 197 194 223 222 234 268 310 165 143 138 182 203 28 180 169 160 155 160 161 156 138 125 123 114 83 66 53 54 55 45 43 40 35 30
212 187 179 183 205 216 245 228 236 272 276 286 299 275 306 313 264 257 247 192 213 213 226 249 220 235 243 223 202 214 163 155 107 152 158 152 157 160 170 179 155 117 106 101 81 73 67 53 43 57 53 46 29 33
185 195 189 173 197 215 255 190 225 215 261 297 312 254 212 234 262 250 240 242 226 234 237 232 222 229 222 210 187 178 168 158 181 151 151 171 153 146 141 141 145 142 125 110 99 78 68 58 41 35 65 53 30 28
168 176 185 195 200 209 199 206 221 260 289 273 255 254 230 204 201 238 249 240 254 238 191 205 208 203 207 203 191 181 188 166 178 167 162 145 133 141 147 131 125 125 125 113 113 100 72 66 49 29 40 63 47 25
167 197 185 194 210 196 204 176 191 177 247 210 252 252 256 99 194 239 244 26 98 137 166 183 195 199 208 201 188 179 199 180 179 181 157 158 150 143 138 134 119 119 154 141 105 94 73 60 65 42 40 48 55 44
218 196 196 200 199 208 203 187 201 213 226 217 239 297 21 21 267 276 46 26 67 60 46 199 241 229 194 184 189 189 187 175 184 167 160 155 149 159 159 150 150 153 130 127 122 100 86 64 66 65 47 31 45 55
226 192 205 222 222 225 256 247 205 210 221 241 150 140 233 234 235 50 50 39 50 36 11 331 296 236 217 185 186 177 177 165 164 180 154 156 172 181 179 178 162 154 154 144 139 126 110 90 77 74 63 43 26 34
254 203 190 204 214 235 267 302 217 220 215 191 148 212 208 61 97 89 42 27 17 1 348 325 57 186 181 179 160 158 147 150 146 142 130 126 132 125 148 158 162 166 152 183 184 167 155 131 98 78 64 66 40 8
238 231 196 189 163 227 237 244 260 246 344 12 12 79 94 98 159 173 130 2 10 359 7 37 90 128 171 157 156 146 159 159 160 149 140 129 145 138 159 162 168 142 138 139 104 91 92 90 109 108 62 52 65 20
240 226 212 208 197 207 239 240 299 85 92 103 130 132 120 134 204 278 278 274 189 210 145 135 109 133 144 147 142 149 164 176 180 170 157 157 154 130 125 133 127 100 87 74 70 72 82 84 84 87 42 353 41 5
219 211 210 229 247 237 284 129 111 112 115 91 85 121 136 155 134 20 0 350 339 139 169 155 115 158 152 155 152 151 140 153 175 168 177 176 164 154 152 152 155 146 144 144 139 104 146 151 134 121 92 36 347 323
196 220 228 224 217 127 111 128 121 99 99 118 125 148 147 144 106 356 23 113 113 128 140 183 173 133 161 158 165 161 161 180 169 166 174 174 169 165 164 163 161 157 167 167 167 174 179 192 190 198 227 278 317 337
193 201 193 206 102 97 148 156 157 146 166 160 169 168 142 130 124 184 82 137 140 119 110 106 136 171 163 164 168 174 177 165 167 164 174 166 152 155 154 157 165 189 209 201 194 199 198 203 217 238 293 332 352 0